EN

Hourly Weather Dzvenyhorod

Today, 23 October, Friday

Time Temperature Precipitation Wind Pressure Humidity
00:00 +12°C° 0 mm 0 mps 749 mmHg 54%
01:00 +11°C° 0 mm 0 mps 749 mmHg 54%
02:00 +12°C° 0 mm 0 mps 749 mmHg 54%
03:00 +11°C° 0 mm 0 mps 748 mmHg 55%
04:00 +11°C° 0 mm 0 mps 748 mmHg 56%
05:00 +10°C° 0 mm 0 mps 748 mmHg 57%
06:00 +11°C° 0 mm 0 mps 748 mmHg 58%
07:00 +11°C° 0 mm 0 mps 748 mmHg 58%
08:00 +11°C° 0 mm 0 mps 748 mmHg 58%
09:00 +13°C° 0 mm 1 mps 747 mmHg 54%
10:00 +15°C° 0 mm 1 mps 747 mmHg 49%
11:00 +18°C° 0 mm 1 mps 747 mmHg 45%
12:00 +17°C° 0 mm 2 mps 747 mmHg 44%
13:00 +18°C° 0 mm 2 mps 746 mmHg 43%
14:00 +19°C° 0 mm 2 mps 746 mmHg 42%
15:00 +14°C° 0 mm 1 mps 745 mmHg 60%
16:00 +15°C° 0 mm 1 mps 745 mmHg 57%
17:00 +15°C° 0 mm 0 mps 745 mmHg 53%
18:00 +14°C° 0 mm 0 mps 745 mmHg 54%
19:00 +14°C° 0 mm 0 mps 745 mmHg 55%
20:00 +13°C° 0 mm 0 mps 745 mmHg 57%
21:00 +14°C° 0 mm 1 mps 745 mmHg 57%
22:00 +14°C° 0 mm 1 mps 745 mmHg 58%
23:00 +13°C° 0 mm 1 mps 745 mmHg 58%

Tomorrow, 24 October, Saturday

Time Temperature Precipitation Wind Pressure Humidity
00:00 +13°C° 0 mm 1 mps 745 mmHg 58%
01:00 +13°C° 0 mm 1 mps 745 mmHg 59%
02:00 +13°C° 0 mm 1 mps 745 mmHg 59%
03:00 +13°C° 0 mm 1 mps 745 mmHg 60%
04:00 +13°C° 0 mm 1 mps 744 mmHg 60%
05:00 +12°C° 0 mm 1 mps 744 mmHg 61%
06:00 +13°C° 0 mm 1 mps 744 mmHg 61%
07:00 +13°C° 0 mm 1 mps 744 mmHg 61%
08:00 +14°C° 0 mm 1 mps 745 mmHg 60%
09:00 +15°C° 0 mm 1 mps 745 mmHg 58%
10:00 +16°C° 0 mm 1 mps 744 mmHg 56%
11:00 +18°C° 0 mm 1 mps 744 mmHg 54%
12:00 +16°C° 0 mm 2 mps 744 mmHg 57%
13:00 +16°C° 0 mm 2 mps 745 mmHg 61%
14:00 +14°C° 0 mm 3 mps 745 mmHg 64%
15:00 +14°C° 0 mm 3 mps 745 mmHg 67%
16:00 +14°C° 0 mm 3 mps 745 mmHg 69%
17:00 +13°C° 0 mm 3 mps 745 mmHg 72%
18:00 +13°C° 0 mm 3 mps 746 mmHg 75%
19:00 +13°C° 0 mm 3 mps 746 mmHg 78%
20:00 +13°C° 0 mm 2 mps 747 mmHg 81%
21:00 +12°C° 0 mm 3 mps 747 mmHg 83%
22:00 +12°C° 0 mm 3 mps 748 mmHg 84%
23:00 +13°C° 0 mm 3 mps 748 mmHg 86%

Day after tomorrow, 25 October, Sunday

Time Temperature Precipitation Wind Pressure Humidity
00:00 +12°C° 0 mm 3 mps 748 mmHg 88%
01:00 +11°C° 0 mm 3 mps 748 mmHg 91%
02:00 +10°C° 0 mm 3 mps 748 mmHg 94%
03:00 +10°C° 0 mm 2 mps 748 mmHg 94%
04:00 +9°C° 0 mm 2 mps 749 mmHg 94%
05:00 +10°C° 0 mm 1 mps 749 mmHg 95%
06:00 +10°C° 0 mm 1 mps 749 mmHg 94%
07:00 +10°C° 0 mm 1 mps 749 mmHg 93%
08:00 +10°C° 0 mm 1 mps 749 mmHg 93%
09:00 +12°C° 0 mm 1 mps 749 mmHg 85%
10:00 +13°C° 0 mm 1 mps 749 mmHg 77%
11:00 +15°C° 0 mm 1 mps 749 mmHg 69%
12:00 +16°C° 0 mm 1 mps 749 mmHg 64%
13:00 +16°C° 0 mm 2 mps 749 mmHg 59%
14:00 +17°C° 0 mm 2 mps 749 mmHg 55%
15:00 +16°C° 0 mm 2 mps 748 mmHg 58%
16:00 +15°C° 0 mm 2 mps 748 mmHg 62%
17:00 +14°C° 0 mm 2 mps 748 mmHg 65%
18:00 +14°C° 0 mm 2 mps 748 mmHg 67%
19:00 +13°C° 0 mm 2 mps 748 mmHg 70%
20:00 +12°C° 0 mm 2 mps 749 mmHg 73%
21:00 +12°C° 0 mm 2 mps 749 mmHg 74%
22:00 +12°C° 0 mm 2 mps 749 mmHg 76%
23:00 +12°C° 0 mm 2 mps 748 mmHg 77%

, 26 October, Monday

Time Temperature Precipitation Wind Pressure Humidity
00:00 +11°C° 0 mm 3 mps 748 mmHg 78%
01:00 +11°C° 0 mm 3 mps 748 mmHg 79%
02:00 +11°C° 0 mm 3 mps 748 mmHg 80%
03:00 +10°C° 0 mm 3 mps 747 mmHg 81%
04:00 +10°C° 0 mm 4 mps 747 mmHg 82%
05:00 +10°C° 0 mm 4 mps 747 mmHg 83%
06:00 +10°C° 0 mm 4 mps 747 mmHg 82%
07:00 +10°C° 0 mm 4 mps 747 mmHg 82%
08:00 +11°C° 0 mm 4 mps 747 mmHg 82%
09:00 +12°C° 0 mm 5 mps 746 mmHg 78%
10:00 +13°C° 0 mm 6 mps 746 mmHg 75%
11:00 +15°C° 0 mm 7 mps 746 mmHg 71%
12:00 +15°C° 0 mm 7 mps 746 mmHg 69%
13:00 +16°C° 0 mm 7 mps 745 mmHg 68%
14:00 +16°C° 0 mm 7 mps 745 mmHg 66%
15:00 +16°C° 0 mm 7 mps 745 mmHg 69%
16:00 +15°C° 0 mm 6 mps 745 mmHg 72%
17:00 +15°C° 0 mm 6 mps 744 mmHg 75%
18:00 +14°C° 0 mm 6 mps 744 mmHg 75%
19:00 +14°C° 0 mm 5 mps 744 mmHg 75%
20:00 +14°C° 0 mm 5 mps 744 mmHg 75%
21:00 +14°C° 0.1 mm 5 mps 744 mmHg 78%
22:00 +14°C° 0.1 mm 5 mps 744 mmHg 81%
23:00 +13°C° 0.1 mm 5 mps 744 mmHg 84%

26 October, Monday

Time Temperature Precipitation Wind Pressure Humidity
00:00 +11°C° 0 mm 3 mps 748 mmHg 78%
01:00 +11°C° 0 mm 3 mps 748 mmHg 79%
02:00 +11°C° 0 mm 3 mps 748 mmHg 80%
03:00 +10°C° 0 mm 3 mps 747 mmHg 81%
04:00 +10°C° 0 mm 4 mps 747 mmHg 82%
05:00 +10°C° 0 mm 4 mps 747 mmHg 83%
06:00 +10°C° 0 mm 4 mps 747 mmHg 82%
07:00 +10°C° 0 mm 4 mps 747 mmHg 82%
08:00 +11°C° 0 mm 4 mps 747 mmHg 82%
09:00 +12°C° 0 mm 5 mps 746 mmHg 78%
10:00 +13°C° 0 mm 6 mps 746 mmHg 75%
11:00 +15°C° 0 mm 7 mps 746 mmHg 71%
12:00 +15°C° 0 mm 7 mps 746 mmHg 69%
13:00 +16°C° 0 mm 7 mps 745 mmHg 68%
14:00 +16°C° 0 mm 7 mps 745 mmHg 66%
15:00 +16°C° 0 mm 7 mps 745 mmHg 69%
16:00 +15°C° 0 mm 6 mps 745 mmHg 72%
17:00 +15°C° 0 mm 6 mps 744 mmHg 75%
18:00 +14°C° 0 mm 6 mps 744 mmHg 75%
19:00 +14°C° 0 mm 5 mps 744 mmHg 75%
20:00 +14°C° 0 mm 5 mps 744 mmHg 75%
21:00 +14°C° 0.1 mm 5 mps 744 mmHg 78%
22:00 +14°C° 0.1 mm 5 mps 744 mmHg 81%
23:00 +13°C° 0.1 mm 5 mps 744 mmHg 84%

27 October, Tuesday

Time Temperature Precipitation Wind Pressure Humidity
00:00 +13°C° 0.2 mm 4 mps 744 mmHg 87%
01:00 +13°C° 0.2 mm 4 mps 744 mmHg 90%
02:00 +13°C° 0.2 mm 3 mps 744 mmHg 93%
03:00 +13°C° 0 mm 3 mps 744 mmHg 93%
04:00 +13°C° 0 mm 3 mps 744 mmHg 93%
05:00 +13°C° 0 mm 3 mps 744 mmHg 93%
06:00 +13°C° 0 mm 3 mps 745 mmHg 93%
07:00 +13°C° 0 mm 3 mps 745 mmHg 93%
08:00 +13°C° 0 mm 3 mps 745 mmHg 93%
09:00 +14°C° 0 mm 3 mps 745 mmHg 87%
10:00 +16°C° 0 mm 3 mps 745 mmHg 81%
11:00 +17°C° 0 mm 4 mps 745 mmHg 74%
12:00 +18°C° 0 mm 4 mps 745 mmHg 72%
13:00 +19°C° 0 mm 4 mps 745 mmHg 69%
14:00 +19°C° 0 mm 4 mps 745 mmHg 67%
15:00 +18°C° 0 mm 4 mps 745 mmHg 72%
16:00 +17°C° 0 mm 3 mps 745 mmHg 77%
17:00 +17°C° 0 mm 3 mps 745 mmHg 82%
18:00 +16°C° 0 mm 3 mps 745 mmHg 85%
19:00 +15°C° 0 mm 2 mps 745 mmHg 89%
20:00 +15°C° 0 mm 2 mps 746 mmHg 92%
21:00 +15°C° 0 mm 2 mps 746 mmHg 92%
22:00 +14°C° 0 mm 2 mps 746 mmHg 93%
23:00 +14°C° 0 mm 2 mps 746 mmHg 93%

28 October, Wednesday

Time Temperature Precipitation Wind Pressure Humidity
00:00 +14°C° 0 mm 2 mps 746 mmHg 94%
01:00 +14°C° 0 mm 2 mps 746 mmHg 94%
02:00 +13°C° 0 mm 2 mps 746 mmHg 94%
03:00 +13°C° 0 mm 2 mps 746 mmHg 95%
04:00 +13°C° 0 mm 2 mps 745 mmHg 95%
05:00 +12°C° 0 mm 3 mps 745 mmHg 95%
06:00 +12°C° 0 mm 3 mps 746 mmHg 94%
07:00 +12°C° 0 mm 3 mps 746 mmHg 93%
08:00 +12°C° 0 mm 3 mps 746 mmHg 93%
09:00 +13°C° 0 mm 4 mps 746 mmHg 89%
10:00 +14°C° 0 mm 4 mps 746 mmHg 86%
11:00 +15°C° 0 mm 4 mps 746 mmHg 83%
12:00 +16°C° 0 mm 5 mps 746 mmHg 83%
13:00 +16°C° 0 mm 5 mps 745 mmHg 82%
14:00 +16°C° 0 mm 5 mps 745 mmHg 81%
15:00 +17°C° 0 mm 4 mps 745 mmHg 81%
16:00 +17°C° 0 mm 3 mps 745 mmHg 81%
17:00 +16°C° 0 mm 3 mps 745 mmHg 82%
18:00 +16°C° 0 mm 3 mps 746 mmHg 82%
19:00 +16°C° 0 mm 2 mps 746 mmHg 82%
20:00 +16°C° 0 mm 2 mps 746 mmHg 82%
21:00 +16°C° 0 mm 2 mps 746 mmHg 83%
22:00 +15°C° 0 mm 1 mps 746 mmHg 84%
23:00 +15°C° 0 mm 1 mps 746 mmHg 85%
Show more